Voltar ao catálogo

COSMOS 641

AtivoMilitarLEO
NORAD 7265·PAYLOAD·🇷🇺 Russia

Lançado Apr 23, 1974 de Plesetsk Cosmodrome

Loading…

Próximas Passagens (próximas 24 horas)

TLE

AtualizadoSource: Space-Track

Época: Sep 14, 2026, 14:34 UTC

1 07265U 74024A   26257.60709720 -.00000005  00000-0  67419-4 0  9997
2 07265  74.0182 199.5416 0059893 142.7449  29.1787 12.57357721404848

Acompanhe COSMOS 641 em tempo real com AllMySat

Download on the App Store